Location: Albuquerque Trailhead
(34.7934°N, 106.3736°W)
Time: 22:54:00
(UTC+00:00)

NOAA 19 - Pass Details

Date: 08 April 2023
Orbit: 840 x 859 km, 99.1° (Epoch: 28 May)

Event Time Altitude Azimuth Distance (km) Brightness Sun altitude
Exits shadow 03:23:45 17° 184° (S) 1,986 6.9 -22.7°
Maximum altitude 03:27:50 58° 258° (WSW) 981 5.7 -23.4°
Drops below altitude 10° 03:33:13 10° 338° (NNW) 2,464 8.3 -24.4°
Sets 03:35:38 0° 342° (NNW) 3,402 9.0 -24.9°
